Location: Great Falls
(47.5000°N, 111.3000°W)
Time: 01:12:44
(UTC-07:00)

ISS - Visible Passes

Search period start: 24 February 2018 00:00
Search period end: 06 March 2018 00:00
Orbit: 402 x 407 km, 51.6° (Epoch: 24 February)

Date Brightness Start Highest point End Pass type
(mag) Time Alt. Az. Time Alt. Az. Time Alt. Az.
26 Feb -0.9 06:07:20 10° S 06:09:13 14° SE 06:11:05 10° E visible
28 Feb -2.0 05:58:02 10° SSW 06:00:55 28° SE 06:03:48 10° E visible
01 Mar -1.4 05:07:36 14° SSE 05:08:50 17° SE 05:11:06 10° E visible
02 Mar -3.3 05:50:23 17° SW 05:52:42 57° SSE 05:55:56 10° ENE visible
03 Mar -2.6 05:00:23 34° SSE 05:00:30 34° SE 05:03:31 10° ENE visible
04 Mar -0.7 04:10:16 13° E 04:10:16 13° E 04:10:54 10° E visible
04 Mar -3.9 05:42:55 27° WSW 05:44:32 80° NNW 05:47:50 10° ENE visible
05 Mar -3.2 04:52:43 56° E 04:52:43 56° E 04:55:31 10° ENE visible
05 Mar -3.1 06:25:42 10° W 06:28:51 42° N 06:32:01 10° ENE visible
